START_TIME,STEP,MOV.,A46,t_acc.,A13,t_acc.,M47,t_acc.,A17,t_acc.,A28,t_acc.,M38,t_acc.
1979-07-04 21:00:26.280 ,0,0,,0,3.,4.8,0.,4.8,,0,0.,4.8,1.,4.8
1979-07-04 21:00:31.080 ,0,0,,0,3.,4.8,0.,4.8,,0,0.,4.8,1.,4.8
1979-07-04 21:00:35.880 ,0,0,,0,2.,4.8,0.,4.8,,0,0.,4.8,1.,4.8
1979-07-04 21:00:40.680 ,0,0,,0,0.,4.8,0.,4.8,,0,0.,4.8,0.,4.8
1979-07-04 21:00:45.480 ,0,0,,0,0.,4.8,0.,4.8,,0,0.,4.8,1.,4.8
1979-07-04 21:00:50.280 ,0,0,,0,0.,4.8,0.,4.8,,0,0.,4.8,2.,4.8
1979-07-04 21:00:55.080 ,0,0,,0,0.,4.8,0.,4.8,,0,0.,4.8,0.,4.8
1979-07-04 21:00:59.880 ,0,0,,0,0.,4.8,0.,4.8,,0,0.,4.8,0.,4.8
1979-07-04 21:01:04.680 ,0,0,,0,5.,4.8,0.,4.8,,0,0.,4.8,1.,4.8
1979-07-04 21:01:09.480 ,0,0,,0,6.,4.8,0.,4.8,,0,0.,4.8,0.,4.8
1979-07-04 21:01:14.280 ,0,0,,0,6.,4.8,0.,4.8,,0,0.,4.8,1.,4.8
1979-07-04 21:01:19.080 ,0,0,,0,5.,4.8,0.,4.8,,0,0.,4.8,0.,4.8
1979-07-04 21:01:23.880 ,0,0,,0,3.,4.8,0.,4.8,,0,0.,4.8,2.,4.8
1979-07-04 21:01:28.680 ,0,0,,0,0.,4.8,0.,4.8,,0,0.,4.8,0.,4.8
1979-07-04 21:01:33.480 ,0,0,,0,0.,4.8,0.,4.8,,0,0.,4.8,0.,4.8
1979-07-04 21:01:38.280 ,1,0,,0,0.,4.8,0.,4.8,,0,0.,4.8,0.,4.8
1979-07-04 21:01:43.080 ,1,0,,0,0.,4.8,0.,4.8,,0,0.,4.8,0.,4.8
1979-07-04 21:01:47.880 ,1,0,,0,2.,4.8,0.,4.8,,0,0.,4.8,0.,4.8
1979-07-04 21:01:52.680 ,1,0,,0,5.,4.8,0.,4.8,,0,0.,4.8,2.,4.8
1979-07-04 21:01:57.480 ,1,0,,0,3.,4.8,0.,4.8,,0,0.,4.8,0.,4.8
1979-07-04 21:02:02.280 ,1,0,,0,7.,4.8,0.,4.8,,0,0.,4.8,0.,4.8
1979-07-04 21:02:07.080 ,1,0,,0,6.,4.8,0.,4.8,,0,0.,4.8,0.,4.8
1979-07-04 21:02:11.880 ,1,0,,0,6.,4.8,0.,4.8,,0,0.,4.8,0.,4.8
1979-07-04 21:02:16.680 ,1,0,,0,0.,4.8,0.,4.8,,0,0.,4.8,0.,4.8
1979-07-04 21:02:21.480 ,1,0,,0,0.,4.8,0.,4.8,,0,0.,4.8,0.,4.8
1979-07-04 21:02:26.280 ,2,0,,0,0.,4.8,0.,4.8,,0,0.,4.8,0.,4.8
1979-07-04 21:02:31.080 ,2,0,,0,0.,4.8,0.,4.8,,0,0.,4.8,0.,4.8
1979-07-04 21:02:35.880 ,2,0,,0,1.,4.8,0.,4.8,,0,0.,4.8,0.,4.8
1979-07-04 21:02:40.680 ,2,0,,0,3.,4.8,0.,4.8,,0,0.,4.8,0.,4.8
1979-07-04 21:02:45.480 ,2,0,,0,8.,4.8,0.,4.8,,0,0.,4.8,0.,4.8
1979-07-04 21:02:50.280 ,2,0,,0,8.,4.8,0.,4.8,,0,0.,4.8,1.,4.8
1979-07-04 21:02:55.080 ,2,0,,0,9.,4.8,0.,4.8,,0,0.,4.8,1.,4.8
1979-07-04 21:02:59.880 ,2,0,,0,7.,4.8,0.,4.8,,0,0.,4.8,0.,4.8
1979-07-04 21:03:04.680 ,2,0,,0,0.,4.8,0.,4.8,,0,0.,4.8,0.,4.8
1979-07-04 21:03:09.480 ,2,0,,0,0.,4.8,0.,4.8,,0,0.,4.8,0.,4.8
1979-07-04 21:03:14.280 ,3,0,,0,0.,4.8,0.,4.8,,0,0.,4.8,0.,4.8
1979-07-04 21:03:19.080 ,3,0,,0,0.,4.8,0.,4.8,,0,0.,4.8,0.,4.8
1979-07-04 21:03:23.880 ,3,0,,0,1.,4.8,0.,4.8,,0,0.,4.8,0.,4.8
1979-07-04 21:03:28.680 ,3,0,,0,7.,4.8,0.,4.8,,0,0.,4.8,0.,4.8
1979-07-04 21:03:33.480 ,3,0,,0,4.,4.8,0.,4.8,,0,0.,4.8,0.,4.8
1979-07-04 21:03:38.280 ,3,0,,0,4.,4.8,0.,4.8,,0,0.,4.8,1.,4.8
1979-07-04 21:03:43.080 ,3,0,,0,8.,4.8,0.,4.8,,0,0.,4.8,1.,4.8
1979-07-04 21:03:47.880 ,3,0,,0,7.,4.8,0.,4.8,,0,0.,4.8,0.,4.8
1979-07-04 21:03:52.680 ,3,0,,0,0.,4.8,0.,4.8,,0,0.,4.8,0.,4.8
1979-07-04 21:03:57.480 ,3,0,,0,0.,4.8,0.,4.8,,0,0.,4.8,1.,4.8
1979-07-04 21:04:02.280 ,4,0,,0,0.,4.8,0.,4.8,,0,0.,4.8,0.,4.8
1979-07-04 21:04:07.080 ,4,0,,0,0.,4.8,0.,4.8,,0,0.,4.8,0.,4.8
1979-07-04 21:04:11.880 ,4,0,,0,0.,4.8,0.,4.8,,0,0.,4.8,0.,4.8
1979-07-04 21:04:16.680 ,4,0,,0,8.,4.8,0.,4.8,,0,0.,4.8,2.,4.8
1979-07-04 21:04:21.480 ,4,0,,0,18.,4.8,1.,4.8,,0,0.,4.8,3.,4.8
1979-07-04 21:04:26.280 ,4,0,,0,15.,4.8,0.,4.8,,0,0.,4.8,2.,4.8
1979-07-04 21:04:31.080 ,4,0,,0,14.,4.8,0.,4.8,,0,0.,4.8,1.,4.8
1979-07-04 21:04:35.880 ,4,0,,0,8.,4.8,0.,4.8,,0,0.,4.8,4.,4.8
1979-07-04 21:04:40.680 ,4,0,,0,0.,4.8,0.,4.8,,0,0.,4.8,0.,4.8
1979-07-04 21:04:45.480 ,4,0,,0,0.,4.8,0.,4.8,,0,0.,4.8,1.,4.8
1979-07-04 21:04:50.280 ,5,0,,0,0.,4.8,0.,4.8,,0,0.,4.8,1.,4.8
1979-07-04 21:04:55.080 ,5,0,,0,0.,4.8,0.,4.8,,0,1.,4.8,0.,4.8
1979-07-04 21:04:59.880 ,5,0,,0,0.,4.8,0.,4.8,,0,0.,4.8,0.,4.8
1979-07-04 21:05:04.680 ,5,0,,0,9.,4.8,0.,4.8,,0,0.,4.8,4.,4.8
1979-07-04 21:05:09.480 ,5,0,,0,12.,4.8,0.,4.8,,0,0.,4.8,0.,4.8
1979-07-04 21:05:14.280 ,5,0,,0,9.,4.8,0.,4.8,,0,0.,4.8,2.,4.8
1979-07-04 21:05:19.080 ,5,0,,0,8.,4.8,0.,4.8,,0,0.,4.8,0.,4.8
1979-07-04 21:05:23.880 ,5,0,,0,6.,4.8,1.,4.8,,0,0.,4.8,2.,4.8
1979-07-04 21:05:28.680 ,5,0,,0,0.,4.8,0.,4.8,,0,0.,4.8,0.,4.8
1979-07-04 21:05:33.480 ,5,0,,0,0.,4.8,0.,4.8,,0,1.,4.8,0.,4.8
1979-07-04 21:05:38.280 ,6,0,,0,0.,4.8,0.,4.8,,0,0.,4.8,1.,4.8
1979-07-04 21:05:43.080 ,6,0,,0,0.,4.8,0.,4.8,,0,0.,4.8,1.,4.8
1979-07-04 21:05:47.880 ,6,0,,0,4.,4.8,0.,4.8,,0,0.,4.8,2.,4.8
1979-07-04 21:05:52.680 ,6,0,,0,16.,4.8,0.,4.8,,0,0.,4.8,1.,4.8
1979-07-04 21:05:57.480 ,6,0,,0,10.,4.8,0.,4.8,,0,0.,4.8,0.,4.8
1979-07-04 21:06:02.280 ,6,0,,0,6.,4.8,1.,4.8,,0,0.,4.8,1.,4.8
1979-07-04 21:06:07.080 ,6,0,,0,11.,4.8,0.,4.8,,0,0.,4.8,2.,4.8
1979-07-04 21:06:11.880 ,6,0,,0,6.,4.8,0.,4.8,,0,0.,4.8,1.,4.8
1979-07-04 21:06:16.680 ,6,0,,0,0.,4.8,0.,4.8,,0,0.,4.8,1.,4.8
1979-07-04 21:06:21.480 ,6,0,,0,0.,4.8,0.,4.8,,0,0.,4.8,0.,4.8
1979-07-04 21:06:26.280 ,7,0,,0,0.,4.8,0.,4.8,,0,0.,4.8,1.,4.8
1979-07-04 21:06:31.080 ,7,0,,0,0.,4.8,0.,4.8,,0,0.,4.8,1.,4.8
1979-07-04 21:06:35.880 ,7,0,,0,3.,4.8,0.,4.8,,0,0.,4.8,0.,4.8
1979-07-04 21:06:40.680 ,7,0,,0,16.,4.8,0.,4.8,,0,0.,4.8,0.,4.8
1979-07-04 21:06:45.480 ,7,0,,0,16.,4.8,0.,4.8,,0,0.,4.8,0.,4.8
1979-07-04 21:06:50.280 ,7,0,,0,12.,4.8,0.,4.8,,0,0.,4.8,0.,4.8
1979-07-04 21:06:55.080 ,7,0,,0,8.,4.8,0.,4.8,,0,0.,4.8,0.,4.8
1979-07-04 21:06:59.880 ,7,0,,0,16.,4.8,0.,4.8,,0,0.,4.8,0.,4.8
1979-07-04 21:07:04.680 ,7,0,,0,0.,4.8,0.,4.8,,0,0.,4.8,0.,4.8
1979-07-04 21:07:09.480 ,7,0,,0,0.,4.8,0.,4.8,,0,0.,4.8,0.,4.8
1979-07-04 21:07:14.280 ,3,1,,0,0.,4.8,0.,4.8,,0,0.,4.8,0.,4.8
1979-07-04 21:07:19.080 ,3,1,,0,0.,4.8,0.,4.8,,0,0.,4.8,0.,4.8
1979-07-04 21:07:23.880 ,3,1,,0,1.,4.8,0.,4.8,,0,0.,4.8,1.,4.8
1979-07-04 21:07:28.680 ,3,1,,0,15.,4.8,0.,4.8,,0,0.,4.8,0.,4.8
1979-07-04 21:07:33.480 ,3,1,,0,10.,4.8,0.,4.8,,0,0.,4.8,0.,4.8
1979-07-04 21:07:38.280 ,0,1,,0,8.,4.8,0.,4.8,,0,1.,4.8,0.,4.8
1979-07-04 21:07:43.080 ,0,1,,0,7.,4.8,0.,4.8,,0,0.,4.8,0.,4.8
1979-07-04 21:07:47.880 ,0,1,,0,5.,4.8,0.,4.8,,0,0.,4.8,0.,4.8
1979-07-04 21:07:52.680 ,0,1,,0,0.,4.8,0.,4.8,,0,0.,4.8,0.,4.8
1979-07-04 21:07:57.480 ,0,1,,0,0.,4.8,0.,4.8,,0,0.,4.8,0.,4.8
1979-07-04 21:08:02.280 ,4,1,,0,0.,4.8,0.,4.8,,0,0.,4.8,0.,4.8
1979-07-04 21:08:07.080 ,4,1,,0,0.,4.8,0.,4.8,,0,0.,4.8,0.,4.8
1979-07-04 21:08:11.880 ,4,1,,0,2.,4.8,0.,4.8,,0,0.,4.8,0.,4.8
1979-07-04 21:08:16.680 ,4,1,,0,5.,4.8,0.,4.8,,0,0.,4.8,0.,4.8
1979-07-04 21:08:21.480 ,4,1,,0,11.,4.8,0.,4.8,,0,0.,4.8,1.,4.8
1979-07-04 21:08:26.280 ,0,0,,0,5.,4.8,0.,4.8,,0,0.,4.8,1.,4.8
1979-07-04 21:08:31.080 ,0,0,,0,14.,4.8,1.,4.8,,0,0.,4.8,1.,4.8
1979-07-04 21:08:35.880 ,0,0,,0,2.,4.8,0.,4.8,,0,0.,4.8,1.,4.8
1979-07-04 21:08:40.680 ,0,0,,0,0.,4.8,0.,4.8,,0,0.,4.8,0.,4.8
1979-07-04 21:08:45.480 ,0,0,,0,0.,4.8,0.,4.8,,0,0.,4.8,0.,4.8
1979-07-04 21:08:56.880 ,0,0,,0,,0,,0,,0,,0,,0
1979-07-04 21:09:01.680 ,0,0,,0,0.,4.8,0.,4.8,,0,0.,4.8,1.,4.8
1979-07-04 21:09:06.480 ,0,0,,0,2.,4.8,0.,4.8,,0,0.,4.8,0.,4.8
1979-07-04 21:09:11.280 ,0,0,,0,15.,4.8,1.,4.8,,0,0.,4.8,0.,4.8
1979-07-04 21:09:16.080 ,0,0,,0,7.,4.8,0.,4.8,,0,0.,4.8,1.,4.8
1979-07-04 21:09:14.280 ,0,1,,0,10.,4.8,0.,4.8,,0,0.,4.8,0.,4.8
1979-07-04 21:09:19.080 ,0,1,,0,8.,4.8,0.,4.8,,0,0.,4.8,0.,4.8
1979-07-04 21:09:23.880 ,0,1,,0,5.,4.8,0.,4.8,,0,0.,4.8,0.,4.8
1979-07-04 21:09:28.680 ,0,1,,0,0.,4.8,0.,4.8,,0,0.,4.8,0.,4.8
1979-07-04 21:09:33.480 ,0,1,,0,0.,4.8,0.,4.8,,0,0.,4.8,0.,4.8
1979-07-04 21:09:38.280 ,4,1,,0,0.,4.8,0.,4.8,,0,0.,4.8,1.,4.8
1979-07-04 21:09:43.080 ,4,1,,0,0.,4.8,0.,4.8,,0,0.,4.8,0.,4.8
1979-07-04 21:09:47.880 ,4,1,,0,2.,4.8,0.,4.8,,0,0.,4.8,1.,4.8
1979-07-04 21:09:52.680 ,4,1,,0,7.,4.8,0.,4.8,,0,0.,4.8,1.,4.8
1979-07-04 21:09:57.480 ,4,1,,0,7.,4.8,0.,4.8,,0,0.,4.8,0.,4.8
1979-07-04 21:10:02.280 ,7,1,,0,12.,4.8,0.,4.8,,0,0.,4.8,1.,4.8
1979-07-04 21:10:07.080 ,7,1,,0,14.,4.8,0.,4.8,,0,0.,4.8,2.,4.8
1979-07-04 21:10:11.880 ,7,1,,0,9.,4.8,0.,4.8,,0,0.,4.8,2.,4.8
1979-07-04 21:10:16.680 ,7,1,,0,0.,4.8,0.,4.8,,0,0.,4.8,0.,4.8
1979-07-04 21:10:21.480 ,7,1,,0,0.,4.8,0.,4.8,,0,0.,4.8,1.,4.8
1979-07-04 21:10:26.280 ,3,1,,0,0.,4.8,0.,4.8,,0,0.,4.8,2.,4.8
1979-07-04 21:10:31.080 ,3,1,,0,0.,4.8,0.,4.8,,0,0.,4.8,3.,4.8
1979-07-04 21:10:35.880 ,3,1,,0,2.,4.8,0.,4.8,,0,0.,4.8,3.,4.8
1979-07-04 21:10:40.680 ,3,1,,0,15.,4.8,0.,4.8,,0,0.,4.8,3.,4.8
1979-07-04 21:10:45.480 ,3,1,,0,9.,4.8,0.,4.8,,0,0.,4.8,1.,4.8
1979-07-04 21:10:50.280 ,0,1,,0,11.,4.8,0.,4.8,,0,0.,4.8,2.,4.8
1979-07-04 21:10:55.080 ,0,1,,0,10.,4.8,0.,4.8,,0,0.,4.8,0.,4.8
1979-07-04 21:10:59.880 ,0,1,,0,4.,4.8,0.,4.8,,0,0.,4.8,0.,4.8
1979-07-04 21:11:04.680 ,0,1,,0,0.,4.8,0.,4.8,,0,0.,4.8,0.,4.8
1979-07-04 21:11:09.480 ,0,1,,0,0.,4.8,0.,4.8,,0,1.,4.8,0.,4.8
1979-07-04 21:11:14.280 ,4,1,,0,0.,4.8,0.,4.8,,0,0.,4.8,0.,4.8
1979-07-04 21:11:19.080 ,4,1,,0,0.,4.8,0.,4.8,,0,0.,4.8,1.,4.8
1979-07-04 21:11:23.880 ,4,1,,0,1.,4.8,0.,4.8,,0,0.,4.8,0.,4.8
1979-07-04 21:11:28.680 ,4,1,,0,11.,4.8,0.,4.8,,0,0.,4.8,1.,4.8
1979-07-04 21:11:33.480 ,4,1,,0,12.,4.8,0.,4.8,,0,0.,4.8,0.,4.8
1979-07-04 21:11:38.280 ,7,1,,0,13.,4.8,0.,4.8,,0,0.,4.8,5.,4.8
1979-07-04 21:11:43.080 ,7,1,,0,12.,4.8,0.,4.8,,0,0.,4.8,0.,4.8
1979-07-04 21:11:47.880 ,7,1,,0,11.,4.8,0.,4.8,,0,0.,4.8,2.,4.8
1979-07-04 21:11:52.680 ,7,1,,0,0.,4.8,0.,4.8,,0,0.,4.8,0.,4.8
1979-07-04 21:11:57.480 ,7,1,,0,0.,4.8,0.,4.8,,0,0.,4.8,0.,4.8
1979-07-04 21:12:02.280 ,3,1,,0,0.,4.8,0.,4.8,,0,0.,4.8,3.,4.8
1979-07-04 21:12:07.080 ,3,1,,0,0.,4.8,0.,4.8,,0,0.,4.8,0.,4.8
1979-07-04 21:12:11.880 ,3,1,,0,3.,4.8,0.,4.8,,0,0.,4.8,0.,4.8
1979-07-04 21:12:16.680 ,3,1,,0,14.,4.8,0.,4.8,,0,0.,4.8,5.,4.8
1979-07-04 21:12:21.480 ,3,1,,0,7.,4.8,0.,4.8,,0,0.,4.8,1.,4.8
1979-07-04 21:12:26.280 ,0,1,,0,4.,4.8,0.,4.8,,0,0.,4.8,0.,4.8
1979-07-04 21:12:31.080 ,0,1,,0,4.,4.8,0.,4.8,,0,0.,4.8,1.,4.8
1979-07-04 21:12:35.880 ,0,1,,0,5.,4.8,0.,4.8,,0,0.,4.8,0.,4.8
1979-07-04 21:12:40.680 ,0,1,,0,0.,4.8,0.,4.8,,0,0.,4.8,0.,4.8
1979-07-04 21:12:45.480 ,0,1,,0,0.,4.8,0.,4.8,,0,0.,4.8,0.,4.8
1979-07-04 21:12:50.280 ,4,1,,0,0.,4.8,0.,4.8,,0,0.,4.8,0.,4.8
1979-07-04 21:12:55.080 ,4,1,,0,0.,4.8,0.,4.8,,0,0.,4.8,1.,4.8
1979-07-04 21:12:59.880 ,4,1,,0,3.,4.8,0.,4.8,,0,0.,4.8,0.,4.8
1979-07-04 21:13:04.680 ,4,1,,0,5.,4.8,0.,4.8,,0,0.,4.8,0.,4.8
1979-07-04 21:13:09.480 ,4,1,,0,12.,4.8,2.,4.8,,0,0.,4.8,4.,4.8
1979-07-04 21:13:14.280 ,0,0,,0,11.,4.8,0.,4.8,,0,0.,4.8,3.,4.8
1979-07-04 21:13:19.080 ,0,0,,0,6.,4.8,0.,4.8,,0,0.,4.8,2.,4.8
1979-07-04 21:13:23.880 ,0,0,,0,11.,4.8,0.,4.8,,0,0.,4.8,1.,4.8
1979-07-04 21:13:28.680 ,0,0,,0,0.,4.8,0.,4.8,,0,0.,4.8,0.,4.8
1979-07-04 21:13:33.480 ,0,0,,0,0.,4.8,0.,4.8,,0,0.,4.8,0.,4.8
1979-07-04 21:13:49.080 ,0,0,,0,,0,,0,,0,,0,,0
1979-07-04 21:13:53.880 ,0,0,,0,,0,,0,,0,,0,,0
1979-07-04 21:13:58.680 ,0,0,,0,2.,4.8,0.,4.8,,0,0.,4.8,0.,4.8
1979-07-04 21:14:03.480 ,0,0,,0,12.,4.8,0.,4.8,,0,0.,4.8,3.,4.8
1979-07-04 21:14:08.280 ,0,0,,0,12.,4.8,0.,4.8,,0,0.,4.8,2.,4.8
1979-07-04 23:08:50.270 ,0,0,,0,0.,4.8,0.,4.8,,0,0.,4.8,5.,4.8
1979-07-04 23:08:55.070 ,0,0,,0,0.,4.8,0.,4.8,,0,0.,4.8,7.,4.8
1979-07-04 23:08:59.870 ,0,0,,0,0.,4.8,0.,4.8,,0,0.,4.8,2.,4.8
1979-07-04 23:09:04.670 ,0,0,,0,17.,4.8,0.,4.8,,0,0.,4.8,2.,4.8
1979-07-04 23:09:09.470 ,0,0,,0,11.,4.8,0.,4.8,,0,0.,4.8,4.,4.8
1979-07-04 23:09:14.270 ,0,0,,0,17.,4.8,0.,4.8,,0,0.,4.8,4.,4.8
1979-07-04 23:09:19.070 ,0,0,,0,10.,4.8,0.,4.8,,0,0.,4.8,6.,4.8
1979-07-04 23:09:23.870 ,0,0,,0,7.,4.8,0.,4.8,,0,0.,4.8,3.,4.8
1979-07-04 23:09:28.670 ,0,0,,0,0.,4.8,0.,4.8,,0,0.,4.8,3.,4.8
1979-07-04 23:09:33.470 ,0,0,,0,0.,4.8,0.,4.8,,0,0.,4.8,4.,4.8
1979-07-04 23:09:38.270 ,2,0,,0,0.,4.8,0.,4.8,,0,0.,4.8,1.,4.8
1979-07-04 23:09:43.070 ,2,0,,0,0.,4.8,0.,4.8,,0,0.,4.8,3.,4.8
1979-07-04 23:09:47.870 ,2,0,,0,1.,4.8,0.,4.8,,0,0.,4.8,1.,4.8
1979-07-04 23:09:52.670 ,2,0,,0,11.,4.8,1.,4.8,,0,0.,4.8,2.,4.8
1979-07-04 23:09:57.470 ,2,0,,0,9.,4.8,0.,4.8,,0,0.,4.8,0.,4.8
1979-07-04 23:10:02.270 ,2,0,,0,8.,4.8,0.,4.8,,0,0.,4.8,2.,4.8
1979-07-04 23:10:07.070 ,2,0,,0,8.,4.8,0.,4.8,,0,0.,4.8,2.,4.8
1979-07-04 23:10:11.870 ,2,0,,0,3.,4.8,0.,4.8,,0,0.,4.8,0.,4.8
1979-07-04 23:10:16.670 ,2,0,,0,0.,4.8,0.,4.8,,0,0.,4.8,1.,4.8
1979-07-04 23:10:21.470 ,2,0,,0,0.,4.8,0.,4.8,,0,0.,4.8,0.,4.8
1979-07-04 23:10:26.270 ,1,0,,0,0.,4.8,0.,4.8,,0,0.,4.8,0.,4.8
1979-07-04 23:10:31.070 ,1,0,,0,0.,4.8,0.,4.8,,0,0.,4.8,1.,4.8
1979-07-04 23:10:35.870 ,1,0,,0,1.,4.8,0.,4.8,,0,0.,4.8,0.,4.8
1979-07-04 23:10:40.670 ,1,0,,0,7.,4.8,0.,4.8,,0,0.,4.8,2.,4.8
1979-07-04 23:10:45.470 ,1,0,,0,11.,4.8,0.,4.8,,0,0.,4.8,0.,4.8
1979-07-04 23:10:50.270 ,1,0,,0,4.,4.8,0.,4.8,,0,0.,4.8,0.,4.8
1979-07-04 23:10:55.070 ,1,0,,0,11.,4.8,0.,4.8,,0,0.,4.8,1.,4.8
1979-07-04 23:10:59.870 ,1,0,,0,5.,4.8,0.,4.8,,0,0.,4.8,1.,4.8
1979-07-04 23:11:04.670 ,1,0,,0,0.,4.8,0.,4.8,,0,0.,4.8,1.,4.8
1979-07-04 23:11:09.470 ,1,0,,0,0.,4.8,0.,4.8,,0,0.,4.8,2.,4.8
1979-07-04 23:11:14.270 ,0,0,,0,0.,4.8,0.,4.8,,0,0.,4.8,1.,4.8
1979-07-04 23:11:19.070 ,0,0,,0,0.,4.8,0.,4.8,,0,0.,4.8,0.,4.8
1979-07-04 23:11:23.870 ,0,0,,0,3.,4.8,0.,4.8,,0,0.,4.8,1.,4.8
1979-07-04 23:11:28.670 ,0,0,,0,7.,4.8,0.,4.8,,0,0.,4.8,0.,4.8
1979-07-04 23:11:33.470 ,0,0,,0,9.,4.8,0.,4.8,,0,0.,4.8,0.,4.8
1979-07-04 23:11:38.270 ,0,0,,0,8.,4.8,0.,4.8,,0,0.,4.8,2.,4.8
1979-07-04 23:11:43.070 ,0,0,,0,6.,4.8,0.,4.8,,0,0.,4.8,2.,4.8
1979-07-04 23:11:47.870 ,0,0,,0,4.,4.8,0.,4.8,,0,0.,4.8,0.,4.8
1979-07-04 23:11:52.670 ,0,0,,0,0.,4.8,0.,4.8,,0,0.,4.8,1.,4.8
1979-07-04 23:11:57.470 ,0,0,,0,0.,4.8,0.,4.8,,0,0.,4.8,2.,4.8
1979-07-04 23:12:02.270 ,0,0,,0,0.,4.8,0.,4.8,,0,0.,4.8,2.,4.8
1979-07-04 23:12:07.070 ,0,0,,0,0.,4.8,0.,4.8,,0,0.,4.8,1.,4.8
1979-07-04 23:12:11.870 ,0,0,,0,3.,4.8,0.,4.8,,0,0.,4.8,0.,4.8
1979-07-04 23:12:16.670 ,0,0,,0,7.,4.8,0.,4.8,,0,0.,4.8,0.,4.8
1979-07-04 23:12:21.470 ,0,0,,0,9.,4.8,0.,4.8,,0,0.,4.8,1.,4.8
1979-07-04 23:12:26.270 ,0,0,,0,9.,4.8,0.,4.8,,0,0.,4.8,1.,4.8
1979-07-04 23:12:31.070 ,0,0,,0,8.,4.8,0.,4.8,,0,0.,4.8,0.,4.8
1979-07-04 23:12:35.870 ,0,0,,0,5.,4.8,0.,4.8,,0,0.,4.8,0.,4.8
1979-07-04 23:12:40.670 ,0,0,,0,0.,4.8,0.,4.8,,0,0.,4.8,0.,4.8
1979-07-04 23:12:45.470 ,0,0,,0,0.,4.8,0.,4.8,,0,0.,4.8,1.,4.8
1979-07-04 23:12:50.270 ,1,0,,0,0.,4.8,0.,4.8,,0,0.,4.8,4.,4.8
1979-07-04 23:12:55.070 ,1,0,,0,0.,4.8,0.,4.8,,0,0.,4.8,1.,4.8
1979-07-04 23:12:59.870 ,1,0,,0,2.,4.8,0.,4.8,,0,0.,4.8,1.,4.8
1979-07-04 23:13:04.670 ,1,0,,0,5.,4.8,0.,4.8,,0,0.,4.8,0.,4.8
1979-07-04 23:13:09.470 ,1,0,,0,6.,4.8,0.,4.8,,0,0.,4.8,0.,4.8
1979-07-04 23:13:14.270 ,1,0,,0,5.,4.8,0.,4.8,,0,0.,4.8,0.,4.8
1979-07-04 23:13:19.070 ,1,0,,0,7.,4.8,0.,4.8,,0,0.,4.8,1.,4.8
1979-07-04 23:13:23.870 ,1,0,,0,9.,4.8,0.,4.8,,0,0.,4.8,0.,4.8
1979-07-04 23:13:28.670 ,1,0,,0,0.,4.8,0.,4.8,,0,0.,4.8,0.,4.8
1979-07-04 23:13:33.470 ,1,0,,0,0.,4.8,0.,4.8,,0,0.,4.8,2.,4.8
1979-07-04 23:13:38.270 ,2,0,,0,1.,4.8,0.,4.8,,0,0.,4.8,0.,4.8
1979-07-04 23:13:43.070 ,2,0,,0,0.,4.8,0.,4.8,,0,0.,4.8,1.,4.8
1979-07-04 23:13:47.870 ,2,0,,0,0.,4.8,0.,4.8,,0,0.,4.8,0.,4.8
1979-07-04 23:13:52.670 ,2,0,,0,10.,4.8,0.,4.8,,0,0.,4.8,0.,4.8
1979-07-04 23:13:57.470 ,2,0,,0,3.,4.8,0.,4.8,,0,0.,4.8,2.,4.8
1979-07-04 23:14:02.270 ,2,0,,0,7.,4.8,0.,4.8,,0,0.,4.8,2.,4.8
1979-07-04 23:14:07.070 ,2,0,,0,4.,4.8,0.,4.8,,0,0.,4.8,1.,4.8
1979-07-04 23:14:11.870 ,2,0,,0,9.,4.8,0.,4.8,,0,0.,4.8,0.,4.8
1979-07-04 23:14:16.670 ,2,0,,0,0.,4.8,0.,4.8,,0,0.,4.8,0.,4.8
1979-07-04 23:14:21.470 ,2,0,,0,0.,4.8,0.,4.8,,0,0.,4.8,1.,4.8
1979-07-04 23:14:26.270 ,3,0,,0,0.,4.8,0.,4.8,,0,0.,4.8,1.,4.8
1979-07-04 23:14:31.070 ,3,0,,0,1.,4.8,0.,4.8,,0,0.,4.8,0.,4.8
1979-07-04 23:14:35.870 ,3,0,,0,2.,4.8,0.,4.8,,0,0.,4.8,8.,4.8
1979-07-04 23:14:40.670 ,3,0,,0,12.,4.8,0.,4.8,,0,0.,4.8,4.,4.8
1979-07-04 23:14:45.470 ,3,0,,0,14.,4.8,1.,4.8,,0,0.,4.8,8.,4.8
1979-07-04 23:14:50.270 ,3,0,,0,18.,4.8,1.,4.8,,0,0.,4.8,8.,4.8
1979-07-04 23:14:55.070 ,3,0,,0,13.,4.8,0.,4.8,,0,0.,4.8,3.,4.8
1979-07-04 23:14:59.870 ,3,0,,0,10.,4.8,0.,4.8,,0,0.,4.8,3.,4.8
1979-07-04 23:15:04.670 ,3,0,,0,0.,4.8,0.,4.8,,0,0.,4.8,11.,4.8
1979-07-04 23:15:09.470 ,3,0,,0,0.,4.8,0.,4.8,,0,0.,4.8,3.,4.8
1979-07-04 23:15:14.270 ,4,0,,0,0.,4.8,0.,4.8,,0,0.,4.8,4.,4.8
1979-07-04 23:15:19.070 ,4,0,,0,0.,4.8,0.,4.8,,0,0.,4.8,8.,4.8
1979-07-04 23:15:23.870 ,4,0,,0,3.,4.8,0.,4.8,,0,0.,4.8,10.,4.8
1979-07-04 23:15:28.670 ,4,0,,0,24.,4.8,2.,4.8,,0,0.,4.8,9.,4.8
1979-07-04 23:15:33.470 ,4,0,,0,24.,4.8,3.,4.8,,0,0.,4.8,8.,4.8
1979-07-04 23:15:38.270 ,4,0,,0,25.,4.8,1.,4.8,,0,0.,4.8,10.,4.8
1979-07-04 23:15:43.070 ,4,0,,0,25.,4.8,1.,4.8,,0,0.,4.8,17.,4.8
1979-07-04 23:15:47.870 ,4,0,,0,22.,4.8,0.,4.8,,0,0.,4.8,8.,4.8
1979-07-04 23:15:52.670 ,4,0,,0,0.,4.8,0.,4.8,,0,0.,4.8,7.,4.8
1979-07-04 23:15:57.470 ,4,0,,0,0.,4.8,0.,4.8,,0,0.,4.8,11.,4.8
1979-07-04 23:16:02.270 ,5,0,,0,0.,4.8,0.,4.8,,0,0.,4.8,13.,4.8
1979-07-04 23:16:07.070 ,5,0,,0,0.,4.8,0.,4.8,,0,0.,4.8,14.,4.8
1979-07-04 23:16:11.870 ,5,0,,0,2.,4.8,1.,4.8,,0,0.,4.8,9.,4.8
1979-07-04 23:16:16.670 ,5,0,,0,17.,4.8,1.,4.8,,0,0.,4.8,15.,4.8
1979-07-04 23:16:21.470 ,5,0,,0,21.,4.8,3.,4.8,,0,0.,4.8,11.,4.8
1979-07-04 23:16:26.270 ,5,0,,0,29.,4.8,0.,4.8,,0,0.,4.8,17.,4.8
1979-07-04 23:16:31.070 ,5,0,,0,20.,4.8,3.,4.8,,0,0.,4.8,15.,4.8
1979-07-04 23:16:35.870 ,5,0,,0,18.,4.8,0.,4.8,,0,0.,4.8,17.,4.8
1979-07-04 23:16:40.670 ,5,0,,0,0.,4.8,0.,4.8,,0,0.,4.8,12.,4.8
1979-07-04 23:16:45.470 ,5,0,,0,0.,4.8,0.,4.8,,0,0.,4.8,11.,4.8
1979-07-04 23:16:50.270 ,6,0,,0,0.,4.8,0.,4.8,,0,0.,4.8,14.,4.8
1979-07-04 23:16:55.070 ,6,0,,0,0.,4.8,0.,4.8,,0,0.,4.8,8.,4.8
1979-07-04 23:16:59.870 ,6,0,,0,5.,4.8,0.,4.8,,0,0.,4.8,5.,4.8
1979-07-04 23:17:04.670 ,6,0,,0,18.,4.8,1.,4.8,,0,0.,4.8,3.,4.8
1979-07-04 23:17:09.470 ,6,0,,0,15.,4.8,1.,4.8,,0,0.,4.8,9.,4.8
1979-07-04 23:17:14.270 ,6,0,,0,23.,4.8,1.,4.8,,0,1.,4.8,7.,4.8
1979-07-04 23:17:19.070 ,6,0,,0,18.,4.8,2.,4.8,,0,0.,4.8,8.,4.8
1979-07-04 23:17:23.870 ,6,0,,0,17.,4.8,1.,4.8,,0,0.,4.8,5.,4.8
1979-07-04 23:17:28.670 ,6,0,,0,0.,4.8,0.,4.8,,0,0.,4.8,6.,4.8
1979-07-04 23:17:33.470 ,6,0,,0,0.,4.8,0.,4.8,,0,0.,4.8,12.,4.8
1979-07-04 23:17:38.270 ,7,0,,0,0.,4.8,0.,4.8,,0,0.,4.8,6.,4.8
1979-07-04 23:17:43.070 ,7,0,,0,0.,4.8,0.,4.8,,0,0.,4.8,6.,4.8
1979-07-04 23:17:47.870 ,7,0,,0,2.,4.8,0.,4.8,,0,0.,4.8,0.,4.8
1979-07-04 23:17:52.670 ,7,0,,0,17.,4.8,0.,4.8,,0,0.,4.8,0.,4.8
1979-07-04 23:17:57.470 ,7,0,,0,25.,4.8,0.,4.8,,0,0.,4.8,0.,4.8
1979-07-04 23:18:02.270 ,7,0,,0,11.,4.8,0.,4.8,,0,0.,4.8,0.,4.8
1979-07-04 23:18:07.070 ,7,0,,0,14.,4.8,0.,4.8,,0,0.,4.8,0.,4.8
1979-07-04 23:18:11.870 ,7,0,,0,14.,4.8,0.,4.8,,0,0.,4.8,1.,4.8
1979-07-04 23:18:16.670 ,7,0,,0,0.,4.8,0.,4.8,,0,0.,4.8,0.,4.8
1979-07-04 23:18:21.470 ,7,0,,0,0.,4.8,0.,4.8,,0,0.,4.8,0.,4.8
1979-07-04 23:18:26.270 ,7,0,,0,1.,4.8,0.,4.8,,0,0.,4.8,0.,4.8
1979-07-04 23:18:31.070 ,7,0,,0,0.,4.8,0.,4.8,,0,0.,4.8,1.,4.8
1979-07-04 23:18:35.870 ,7,0,,0,4.,4.8,0.,4.8,,0,0.,4.8,0.,4.8
1979-07-04 23:18:40.670 ,7,0,,0,22.,4.8,0.,4.8,,0,0.,4.8,0.,4.8
1979-07-04 23:18:45.470 ,7,0,,0,16.,4.8,0.,4.8,,0,0.,4.8,0.,4.8
1979-07-04 23:18:50.270 ,7,0,,0,12.,4.8,0.,4.8,,0,0.,4.8,0.,4.8
1979-07-04 23:18:55.070 ,7,0,,0,15.,4.8,0.,4.8,,0,0.,4.8,0.,4.8
1979-07-04 23:18:59.870 ,7,0,,0,14.,4.8,0.,4.8,,0,0.,4.8,0.,4.8
1979-07-04 23:19:04.670 ,7,0,,0,0.,4.8,0.,4.8,,0,0.,4.8,0.,4.8
1979-07-04 23:19:09.470 ,7,0,,0,0.,4.8,0.,4.8,,0,0.,4.8,0.,4.8
1979-07-04 23:19:14.270 ,6,0,,0,0.,4.8,0.,4.8,,0,0.,4.8,0.,4.8
1979-07-04 23:19:19.070 ,6,0,,0,0.,4.8,0.,4.8,,0,0.,4.8,1.,4.8
1979-07-04 23:19:23.870 ,6,0,,0,2.,4.8,0.,4.8,,0,0.,4.8,8.,4.8
1979-07-04 23:19:28.670 ,6,0,,0,17.,4.8,2.,4.8,,0,0.,4.8,9.,4.8
1979-07-04 23:19:33.470 ,6,0,,0,23.,4.8,4.,4.8,,0,0.,4.8,4.,4.8
1979-07-04 23:19:38.270 ,6,0,,0,25.,4.8,2.,4.8,,0,0.,4.8,6.,4.8
1979-07-04 23:19:43.070 ,6,0,,0,28.,4.8,2.,4.8,,0,0.,4.8,5.,4.8
1979-07-04 23:19:47.870 ,6,0,,0,17.,4.8,1.,4.8,,0,0.,4.8,8.,4.8
1979-07-04 23:19:52.670 ,6,0,,0,0.,4.8,0.,4.8,,0,0.,4.8,10.,4.8
1979-07-04 23:19:57.470 ,6,0,,0,0.,4.8,0.,4.8,,0,0.,4.8,7.,4.8
1979-07-04 23:20:02.270 ,5,0,,0,0.,4.8,0.,4.8,,0,0.,4.8,10.,4.8
1979-07-04 23:20:07.070 ,5,0,,0,1.,4.8,0.,4.8,,0,0.,4.8,10.,4.8
1979-07-04 23:20:11.870 ,5,0,,0,5.,4.8,2.,4.8,,0,0.,4.8,15.,4.8
1979-07-04 23:20:16.670 ,5,0,,0,21.,4.8,2.,4.8,,0,0.,4.8,15.,4.8
1979-07-04 23:20:21.470 ,5,0,,0,20.,4.8,3.,4.8,,0,0.,4.8,11.,4.8
1979-07-04 23:20:26.270 ,5,0,,0,29.,4.8,3.,4.8,,0,0.,4.8,13.,4.8
1979-07-04 23:20:31.070 ,5,0,,0,24.,4.8,0.,4.8,,0,0.,4.8,11.,4.8
1979-07-04 23:20:35.870 ,5,0,,0,22.,4.8,3.,4.8,,0,0.,4.8,20.,4.8
1979-07-04 23:20:40.670 ,5,0,,0,0.,4.8,0.,4.8,,0,0.,4.8,12.,4.8
1979-07-04 23:20:45.470 ,5,0,,0,0.,4.8,0.,4.8,,0,0.,4.8,14.,4.8
1979-07-04 23:20:50.270 ,4,0,,0,0.,4.8,0.,4.8,,0,0.,4.8,10.,4.8
1979-07-04 23:20:55.070 ,4,0,,0,0.,4.8,0.,4.8,,0,0.,4.8,14.,4.8
1979-07-04 23:20:59.870 ,4,0,,0,1.,4.8,0.,4.8,,0,0.,4.8,8.,4.8
1979-07-04 23:21:04.670 ,4,0,,0,24.,4.8,3.,4.8,,0,0.,4.8,5.,4.8
1979-07-04 23:21:09.470 ,4,0,,0,35.,4.8,3.,4.8,,0,0.,4.8,16.,4.8
1979-07-04 23:21:14.270 ,4,0,,0,18.,4.8,1.,4.8,,0,0.,4.8,14.,4.8
1979-07-04 23:21:19.070 ,4,0,,0,29.,4.8,1.,4.8,,0,0.,4.8,16.,4.8
1979-07-04 23:21:23.870 ,4,0,,0,16.,4.8,0.,4.8,,0,0.,4.8,13.,4.8
1979-07-04 23:21:28.670 ,4,0,,0,0.,4.8,0.,4.8,,0,0.,4.8,15.,4.8
1979-07-04 23:21:33.470 ,4,0,,0,0.,4.8,0.,4.8,,0,0.,4.8,9.,4.8
1979-07-04 23:21:38.270 ,3,0,,0,0.,4.8,0.,4.8,,0,0.,4.8,12.,4.8
1979-07-04 23:21:43.070 ,3,0,,0,0.,4.8,0.,4.8,,0,0.,4.8,17.,4.8
1979-07-04 23:21:47.870 ,3,0,,0,3.,4.8,1.,4.8,,0,0.,4.8,3.,4.8
1979-07-04 23:21:52.670 ,3,0,,0,12.,4.8,0.,4.8,,0,0.,4.8,6.,4.8
1979-07-04 23:21:57.470 ,3,0,,0,12.,4.8,0.,4.8,,0,0.,4.8,3.,4.8
1979-07-04 23:22:02.270 ,3,0,,0,12.,4.8,1.,4.8,,0,0.,4.8,6.,4.8
1979-07-04 23:22:07.070 ,3,0,,0,11.,4.8,2.,4.8,,0,0.,4.8,7.,4.8
1979-07-04 23:22:11.870 ,3,0,,0,17.,4.8,2.,4.8,,0,0.,4.8,4.,4.8
1979-07-04 23:22:16.670 ,3,0,,0,0.,4.8,0.,4.8,,0,0.,4.8,6.,4.8
1979-07-04 23:22:21.470 ,3,0,,0,0.,4.8,0.,4.8,,0,0.,4.8,7.,4.8
1979-07-04 23:22:26.270 ,2,0,,0,0.,4.8,0.,4.8,,0,0.,4.8,4.,4.8
1979-07-04 23:22:31.070 ,2,0,,0,0.,4.8,0.,4.8,,0,0.,4.8,2.,4.8
1979-07-04 23:22:35.870 ,2,0,,0,2.,4.8,0.,4.8,,0,0.,4.8,2.,4.8
1979-07-04 23:22:40.670 ,2,0,,0,9.,4.8,0.,4.8,,0,0.,4.8,1.,4.8
1979-07-04 23:22:45.470 ,2,0,,0,11.,4.8,0.,4.8,,0,0.,4.8,2.,4.8
1979-07-04 23:22:50.270 ,2,0,,0,7.,4.8,0.,4.8,,0,0.,4.8,0.,4.8
1979-07-04 23:22:55.070 ,2,0,,0,9.,4.8,0.,4.8,,0,0.,4.8,0.,4.8
1979-07-04 23:22:59.870 ,2,0,,0,5.,4.8,0.,4.8,,0,0.,4.8,1.,4.8
1979-07-04 23:23:04.670 ,2,0,,0,0.,4.8,0.,4.8,,0,0.,4.8,1.,4.8
1979-07-04 23:23:09.470 ,2,0,,0,0.,4.8,0.,4.8,,0,0.,4.8,1.,4.8
1979-07-04 23:23:14.270 ,1,0,,0,0.,4.8,0.,4.8,,0,0.,4.8,1.,4.8
1979-07-04 23:23:19.070 ,1,0,,0,0.,4.8,0.,4.8,,0,0.,4.8,0.,4.8
1979-07-04 23:23:23.870 ,1,0,,0,4.,4.8,0.,4.8,,0,0.,4.8,1.,4.8
1979-07-04 23:23:28.670 ,1,0,,0,7.,4.8,0.,4.8,,0,0.,4.8,0.,4.8
1979-07-04 23:23:33.470 ,1,0,,0,10.,4.8,0.,4.8,,0,0.,4.8,0.,4.8
1979-07-04 23:23:38.270 ,1,0,,0,7.,4.8,0.,4.8,,0,0.,4.8,1.,4.8
1979-07-04 23:23:43.070 ,1,0,,0,9.,4.8,0.,4.8,,0,0.,4.8,1.,4.8
1979-07-04 23:23:47.870 ,1,0,,0,7.,4.8,0.,4.8,,0,0.,4.8,0.,4.8
1979-07-04 23:23:52.670 ,1,0,,0,0.,4.8,0.,4.8,,0,0.,4.8,0.,4.8
1979-07-04 23:23:57.470 ,1,0,,0,0.,4.8,0.,4.8,,0,0.,4.8,1.,4.8
1979-07-04 23:24:02.270 ,0,0,,0,0.,4.8,0.,4.8,,0,0.,4.8,2.,4.8
1979-07-04 23:24:07.070 ,0,0,,0,0.,4.8,0.,4.8,,0,0.,4.8,0.,4.8
1979-07-04 23:24:11.870 ,0,0,,0,2.,4.8,0.,4.8,,0,0.,4.8,2.,4.8
1979-07-04 23:24:16.670 ,0,0,,0,6.,4.8,0.,4.8,,0,0.,4.8,6.,4.8
1979-07-04 23:24:21.470 ,0,0,,0,7.,4.8,0.,4.8,,0,0.,4.8,1.,4.8
1979-07-04 23:24:26.270 ,0,0,,0,11.,4.8,0.,4.8,,0,0.,4.8,1.,4.8
1979-07-04 23:24:31.070 ,0,0,,0,11.,4.8,0.,4.8,,0,0.,4.8,0.,4.8
1979-07-04 23:24:35.870 ,0,0,,0,5.,4.8,0.,4.8,,0,0.,4.8,1.,4.8
1979-07-04 23:24:40.670 ,0,0,,0,0.,4.8,0.,4.8,,0,0.,4.8,0.,4.8
1979-07-04 23:24:45.470 ,0,0,,0,0.,4.8,0.,4.8,,0,0.,4.8,1.,4.8
1979-07-04 23:24:50.270 ,0,0,,0,0.,4.8,0.,4.8,,0,0.,4.8,5.,4.8
1979-07-04 23:24:55.070 ,0,0,,0,0.,4.8,0.,4.8,,0,0.,4.8,2.,4.8